Jackpot

Texas Poker Multi Jackpot System

Kini Telah hadir Jackpot SUPER ROYAL FLUSH

Kini Telah hadir Jackpot 2000 (khusus table VIP keatas).

Ikutilah global jackpot yang tersedia di system kami, dengan system jackpot terbaru dan pertama di indonesia, anda dapat membeli jackpot dengan harga 100 rupiah saja dan menangkan hadiahnya hingga puluhan juta rupiah.

Jackpot bukanlah suatu keharusan untuk dibeli, namun kami memberikan suatu fitur tambahan untuk member tercinta dari www.855domino.net.

Terdapat tiga pilihan harga jackpot yang bisa anda beli yaitu :100,500,1000 dan 2000(khusus table VIP Keatas) rupiah.

Hadiah dari Multi jackpot system www.855domino.net

  1. full house x 10 harga jackpot yang anda beli.
      (contoh:anda membeli 1000 maka:1000 X10 = 10.000)
  2. four of kind x 250 harga jackpot yang anda beli
      (contoh:anda membeli 1000 maka:1000 X250 = 250.000)
  3. Straight flush x 1200
      (contoh:anda membeli 1000 maka:1000 X1200 = 1.200.000)
  4. Royal flush x 10000 harga jackpot yang anda beli
      (contoh:anda membeli 1000 maka:1000 X10000 = 10.000.000)
  5. SUPER ROYAL FLUSH x 30000 harga jackpot yang anda beli
      (contoh:anda membeli 1000 maka:1000 X30000 = 30.000.000)

Kondisi kartu

  1. full house adalah kondisi kartu dimana kartu anda dan kartu tengah dengan total 7 kartu bisa mendapatkan nilai 5 kartu dengan kombinasi 1 tris(three of kind) dan 1 pair, contoh 3 kartu 10 dan 2 kartu 5
  2. Four of kind adalah kondisi kartu dimana kartu anda dan kartu tengah dengan total 7 kartu bisa mendapatkan nilai 5 kartu dengan kombinasi 4 kartu yang sama jumlah dan 1 kartu apapun juga contoh anda mendapatkan 4 buah kartu angka 3 dan 1 kartu apapun.
  3. Staright flush adalah kondisi kartu dimana kartu anda dan kartu tengah dengan total 7 kartu bisa mendapatkan nilai 5 kartu dengan kombinasi seri / staright dengan kembang yang sama contoh : urutan kartu dari angka 5, 6, 7, 8 , 9 10 dengan kembang yg sama misalnya as hati
  4. Royal flush adalah kondisi kartu dimana kartu anda dan kartu tengah dengan total 7 kartu bisa mendapatkan nilai 5 kartu dengan kombinasi seri / staright dengan kembang yang sama tetapi kartu tersebut haruslah dimulai dari 10. contoh 10, Queen, Jack, King dan aces dengan kembang yang sama
  5. Super Royal flush adalah kondisi kartu dimana Kedua kartu anda digabung dengan 3 kartu pertama meja haruslah royal flush. contoh kartu anda 10,Queen kembang sama dan 3 kartu pertama meja adalah Jack, King dan aces dengan kembang yang sama

Demikian adalah penjelasan dari Multi Jackpot www.855domino.net terima kasih dan selamat bermain salam hoki dari kami

Texas Poker Jackpot Winner

TOP SUPER ROYAL FLUSH
No.TanggalNamaPriceWin
120/06 20:53SIGIT822Super Royal flush30,000,000
220/06 15:16SKM6688Super Royal flush15,000,000
319/06 22:51XK4MI2Super Royal flush3,000,000
419/06 22:24WINNER888Super Royal flush15,000,000
519/06 22:05F8A6BAF1Super Royal flush6,000,000
TOP ROYAL FLUSH
No.TanggalNamaPriceWin
120/06 22:00PUNG222Royal flush2,000,000
220/06 21:58DJUHAIRIAHRoyal flush2,000,000
320/06 21:51EKA30555Royal flush2,000,000
420/06 21:38ZP3MBBSWU3Royal flush2,000,000
520/06 21:28D83CAA5BRoyal flush2,000,000
TOP STRAIGHT FLUSH
No.TanggalNamaPriceWin
120/06 22:05LUCKYPKR9Straight Flush600,000
220/06 22:05CTW88Straight Flush1,200,000
320/06 22:04SMHDP5Straight Flush120,000
420/06 22:04YAKIN333Straight Flush60,000
520/06 22:00LULUAH3962Straight Flush600,000
LATEST JACKPOT
No.TanggalNamaPriceWin
120/06 22:05ZOE27Full House10,000
220/06 22:05IISDAHLIAFull House2,000
320/06 22:05FSEA4WNRNNFull House2,000
420/06 22:05ERIC85Full House20,000
520/06 22:05ADETUKEN19Full House2,000
620/06 22:05DWTGOKILFour Of A Kind50,000
720/06 22:05SINYO_09Full House5,000
820/06 22:05D7931C04Four Of A Kind125,000
920/06 22:05KIR1IKFull House1,000
1020/06 22:05DUAPUTI69Full House5,000
1120/06 22:05E4FNZBT9GUFull House5,000
1220/06 22:05DFE8C9B8Full House5,000
1320/06 22:05GENZIEG555Full House10,000
1420/06 22:05PRIVAATFull House5,000
1520/06 22:05MISHA11Full House1,000
1620/06 22:05YOYOTOOFour Of A Kind125,000
1720/06 22:05KAWE92Full House10,000
1820/06 22:05TEMPIK01Full House2,000
1920/06 22:05S3NJ4P4G1Full House500
2020/06 22:05AFCE9DF0Full House2,000
2120/06 22:05DA8FDA63Full House2,000
2220/06 22:05DJ_AXCELFour Of A Kind25,000
2320/06 22:05GENTEFull House10,000
2420/06 22:05VIRU2SSFull House1,000
2520/06 22:05A84MFull House1,000
2620/06 22:05PUTRA0225Full House1,000
2720/06 22:05BROTHER086Full House5,000
2820/06 22:05LUCKYPKR9Straight Flush600,000
2920/06 22:05NAMIS009Full House5,000
3020/06 22:05B1BBB8E7Full House1,000
3120/06 22:05RARE5516Full House5,000
3220/06 22:05BOMER88Full House10,000
3320/06 22:05KALIBER33Full House5,000
3420/06 22:05CHODOT199Full House5,000
3520/06 22:05BAFADDALFull House2,000
3620/06 22:05DEWITONGGFull House2,000
3720/06 22:05NIAGARA000Full House2,000
3820/06 22:05AWEAWE22Full House1,000
3920/06 22:05ZALFA57Full House2,000
4020/06 22:05RYLBINTANGFull House2,000
4120/06 22:05JHOOFull House2,000
4220/06 22:05PETOT77Full House2,000
4320/06 22:05BE770EFull House2,000
4420/06 22:05B0SK444Full House5,000
4520/06 22:05ALMAHYRA15Full House2,000
4620/06 22:05ABCDE456Full House2,000
4720/06 22:05DWTDAVE24Full House2,000
4820/06 22:05ISRO345Full House5,000
4920/06 22:05LK4DKRIBO12Full House5,000
5020/06 22:05NTEKKRINAFull House5,000

Domino Multi Jackpot System

Ikutilah global jackpot yang tersedia di system kami, dengan system jackpot terbaru dan pertama di indonesia, anda dapat membeli jackpot dengan harga 100 rupiah saja dan menangkan hadiahnya hingga puluhan juta rupiah.

Jackpot bukanlah suatu keharusan untuk dibeli, namun kami memberikan suatu fitur tambahan untuk member tercinta dari www.855domino.net.

Terdapat tiga pilihan harga jackpot yang bisa anda beli yaitu :100,500 dan 1000 rupiah.

Hadiah dari Multi jackpot system www.855domino.net

  1. Murni Kecil x 50 harga jackpot yang anda beli.
      (contoh:anda membeli 1000 maka:1000 X 50 = 50.000)
  2. Murni Besar x 50 harga jackpot yang anda beli
      (contoh:anda membeli 1000 maka:1000 X 50 = 50.000)
  3. BALAK x 100 harga jackpot yang anda beli
      (contoh:anda membeli 1000 maka:1000 X 100 = 100.000)
  4. ENAM DEWA x 6666 harga jackpot yang anda beli
      (contoh:anda membeli 1000 maka:1000 X 6666 = 6.666.000)

Demikian adalah penjelasan dari Multi Jackpot www.855domino.net terima kasih dan selamat bermain salam hoki dari kami

Domino Jackpot Winner

TOP ENAM DEWA
No.TanggalNamaPriceWin
120/06 21:54BEBESLAmurni enam6,666,000
220/06 20:54BAHIRAANmurni enam6,666,000
320/06 20:52UNTAL21murni enam6,666,000
420/06 20:51KURUKPAImurni enam666,600
520/06 18:18KHOMSINXXXmurni enam666,600
TOP BALAK
No.TanggalNamaPriceWin
120/06 22:03KACANGKAbalak50,000
220/06 22:03YUDII01balak100,000
320/06 22:01KOKOOO00balak50,000
420/06 22:01INDRA018balak10,000
520/06 22:00SADOYO01balak50,000
LATEST JACKPOT
No.TanggalNamaPriceWin
120/06 22:05SHIER06murni besar50,000
220/06 22:05MDRLOGEN46murni besar50,000
320/06 22:05IP61UUSX2Xmurni kecil25,000
420/06 22:05TARAUPmurni besar50,000
520/06 22:03HOKIROTO99murni besar50,000
620/06 22:03SUCI995murni besar50,000
720/06 22:03KACANGKAbalak50,000
820/06 22:03YUDII01balak100,000
920/06 22:01KOKOOO00balak50,000
1020/06 22:01INDRA018balak10,000
1120/06 22:01ULAH_MANGmurni kecil50,000
1220/06 22:01MOJAYANmurni besar50,000
1320/06 22:01B68226ACmurni kecil50,000
1420/06 22:00SADOYO01balak50,000
1520/06 22:00FEBI27murni kecil50,000
1620/06 22:00RISKIIIbalak100,000
1720/06 22:00TX92YSSN2Nmurni besar5,000
1820/06 22:00AWALAKILbalak10,000
1920/06 21:59ANDITNBmurni kecil50,000
2020/06 21:59P3RMUL4murni kecil5,000
2120/06 21:58WANDA75lucky9925,000
2220/06 21:57GENJI93murni besar25,000
2320/06 21:57ABAYOS99murni besar50,000
2420/06 21:57BORESSSmurni besar25,000
2520/06 21:57FORTUNA090murni besar5,000
2620/06 21:56JESABIMA02murni kecil50,000
2720/06 21:56JUMBRET123murni kecil50,000
2820/06 21:56MKS25murni kecil25,000
2920/06 21:56PELAGIAT99murni besar25,000
3020/06 21:55GATOK85murni kecil25,000
3120/06 21:55NISYA1234murni besar5,000
3220/06 21:55P3RMUL4lucky992,500
3320/06 21:54BAB55E6Dmurni kecil25,000
3420/06 21:54OO2BB8IG4Flucky9910,000
3520/06 21:54HACKERQbalak100,000
3620/06 21:54BEBESLAmurni enam6,666,000
3720/06 21:54DATUAN96murni besar50,000
3820/06 21:53BAB55E6Dmurni besar25,000
3920/06 21:53IMAM_SUBRAbalak100,000
4020/06 21:52OCONG78murni besar50,000
4120/06 21:52OCHA82murni besar25,000
4220/06 21:52ZOH2JPKYSMbalak50,000
4320/06 21:51WANDA75murni kecil50,000
4420/06 21:50ARIQUENmurni besar5,000
4520/06 21:50HADADBIBmurni kecil5,000
4620/06 21:49KUNING246murni besar25,000
4720/06 21:49R_14murni besar25,000
4820/06 21:49RUBYHIJAUmurni besar50,000
4920/06 21:48RUBYHIJAUbalak100,000
5020/06 21:48SUG14N4murni kecil25,000

Ceme Multi Jackpot System

Jackpot dilihat dari gabungan kartu pemain dengan kartu bandar. Bandar harus membeli jackpot sebanyak jumlah player yang sedang duduk. Sebagai contoh bila terdapat 3 pemain duduk bermain, dan bandar memutuskan untuk membeli jackpot Rp 1.000, maka pada periode tersebut bandar akan membeli jackpot sebanyak 3xRp1.000 = Rp3.000.

Jackpot bukanlah suatu keharusan untuk dibeli, namun kami memberikan suatu fitur tambahan untuk member tercinta dari www.855domino.net.

Terdapat tiga pilihan harga jackpot yang bisa anda beli yaitu :100,500 dan 1000 rupiah.

Hadiah dari Multi jackpot system www.855domino.net

  1. Murni Kecil x 50 harga jackpot yang anda beli.
      (contoh:anda membeli 1000 maka:1000 X 50 = 50.000)
  2. Murni Besar x 50 harga jackpot yang anda beli
      (contoh:anda membeli 1000 maka:1000 X 50 = 50.000)
  3. BALAK x 200 harga jackpot yang anda beli
      (contoh:anda membeli 1000 maka:1000 X 200 = 200.000)
  4. ENAM DEWA x 6666 harga jackpot yang anda beli
      (contoh:anda membeli 1000 maka:1000 X 6666 = 6.666.000)

Demikian adalah penjelasan dari Multi Jackpot www.855domino.net terima kasih dan selamat bermain salam hoki dari kami

Ceme Jackpot Winner

TOP ENAM DEWA
No.TanggalNamaPriceWin
120/06 21:26RAJAGENJmurni enam6,666,000
220/06 21:26UBEX93murni enam3,333,000
320/06 21:21RRH31murni enam6,666,000
420/06 21:15NEOL07murni enam6,666,000
520/06 21:07PRIVAATmurni enam3,333,000
TOP BALAK
No.TanggalNamaPriceWin
120/06 22:05SITISAN09balak200,000
220/06 22:05TRYKWD1balak20,000
320/06 22:05EKA_QILLAbalak200,000
420/06 22:05EKA_QILLAbalak200,000
520/06 22:05ON30balak200,000
LATEST JACKPOT
No.TanggalNamaPriceWin
120/06 22:05D7C43DB4murni besar50,000
220/06 22:05SITISAN09balak200,000
320/06 22:05IDUTEAmurni kecil50,000
420/06 22:05JOKI109murni kecil50,000
520/06 22:05TRYKWD1balak20,000
620/06 22:0583090715murni kecil50,000
720/06 22:05PAIS88murni kecil5,000
820/06 22:05EN9KONGmurni besar50,000
920/06 22:05PANTEK321murni kecil50,000
1020/06 22:05GIOVANQQmurni besar25,000
1120/06 22:05VITALIS16murni besar50,000
1220/06 22:05BP881453murni besar50,000
1320/06 22:05EKA_QILLAbalak200,000
1420/06 22:05EKA_QILLAbalak200,000
1520/06 22:05CANOEL3murni besar50,000
1620/06 22:05ON30balak200,000
1720/06 22:05MANUT999murni besar50,000
1820/06 22:05LB993911murni besar25,000
1920/06 22:05JOKER1333balak200,000
2020/06 22:05KDUDImurni besar5,000
2120/06 22:04DYLAN273murni kecil50,000
2220/06 22:04DUWET22murni kecil25,000
2320/06 22:04KIYA80murni kecil50,000
2420/06 22:04RG123AHZ1murni besar25,000
2520/06 22:04BAHLOL252murni besar50,000
2620/06 22:04AMANDA123murni kecil50,000
2720/06 22:04AMANDA123murni kecil50,000
2820/06 22:04BOBSIAKBARmurni kecil50,000
2920/06 22:04UNOMHIHBGMbalak100,000
3020/06 22:04GENDI182balak200,000
3120/06 22:04BOYTRIObalak200,000
3220/06 22:04JMOCmurni besar50,000
3320/06 22:04IER1234QWmurni besar50,000
3420/06 22:04KISRUN9murni kecil50,000
3520/06 22:04TITINHOKYmurni kecil5,000
3620/06 22:04SINAL888murni besar50,000
3720/06 22:04SINAL888balak200,000
3820/06 22:04RYLIMmurni besar50,000
3920/06 22:04E36LIVTFX6murni besar50,000
4020/06 22:04TENGKU1818murni besar50,000
4120/06 22:04RRH31murni besar50,000
4220/06 22:04ACHIL10murni besar50,000
4320/06 22:03FRITZ09balak20,000
4420/06 22:03FRITZ09balak20,000
4520/06 22:03KALPAS10murni besar5,000
4620/06 22:03DARKZONmurni besar25,000
4720/06 22:03RADENRUDYbalak200,000
4820/06 22:03RAJAGENJmurni kecil50,000
4920/06 22:03ABAHOMED99murni kecil50,000
5020/06 22:03NOVA115murni kecil25,000